Location: Gwatt
(46.7204°N, 7.6223°E)
Time: 14:11:14
(UTC+00:00)

S-56A Canister/Altair - Pass Details

Date: 28 January 2021
Orbit: 632 x 2501 km, 38.9° (Epoch: 28 February)

Event Time Altitude Azimuth Distance (km) Brightness Sun altitude
Rises 02:56:17 0° 255° (WSW) 3,020 - -41.2°
Reaches altitude 10° 02:58:51 10° 245° (WSW) 2,031 - -40.8°
Maximum altitude 03:02:48 31° 182° (S) 1,107 - -40.2°
Drops below altitude 10° 03:06:54 10° 120° (ESE) 2,115 - -39.5°
Exits shadow 03:07:16 - 118° (ESE) 2,252 10.3 -39.4°
Sets 03:09:38 0° 110° (ESE) 3,170 11.3 -39.0°
